Location: Poughquag
(41.6090°N, 73.6820°W)
Time: 21:14:40
(UTC-04:00)

Vanguard 1 - Visible Passes

Search period start: 20 May 2024 00:00
Search period end: 30 May 2024 00:00
Orbit: 651 x 3826 km, 34.2° (Epoch: 19 May)

Date Brightness Start Highest point End Pass type
(mag) Time Alt. Az. Time Alt. Az. Time Alt. Az.
20 May 12.5 01:10:54 10° W 01:27:17 65° SSW 01:50:24 10° ESE visible
20 May 13.0 03:33:58 10° W 03:52:32 43° SSW 04:12:56 10° SSE visible
20 May 11.9 20:51:26 10° SW 21:00:28 45° SSE 21:16:16 10° E visible
20 May 12.1 23:10:11 10° WSW 23:22:50 67° S 23:44:20 10° E visible
21 May 12.6 01:31:10 10° W 01:47:47 60° SSW 02:10:35 10° SE visible
21 May 13.1 03:54:51 10° W 04:12:37 36° SW 04:31:51 10° SSE visible
21 May 11.8 21:11:01 10° SW 21:20:21 51° SSE 21:37:09 10° E visible
21 May 12.2 23:30:15 10° W 23:43:14 67° S 00:05:01 10° ESE visible
22 May 12.6 01:51:30 10° W 02:08:11 55° SSW 02:30:32 10° SE visible
22 May 13.2 04:16:06 10° W 04:32:36 30° SW 04:50:14 10° S visible
22 May 11.8 21:30:44 10° WSW 21:40:22 57° SSE 21:57:58 10° E visible
22 May 12.2 23:50:21 10° W 00:03:40 66° S 00:25:36 10° ESE visible
23 May 12.7 02:11:55 10° W 02:28:31 49° SSW 02:50:12 10° SE visible
23 May 13.4 04:37:55 10° W 04:52:30 23° SW 05:07:53 10° S visible
23 May 11.8 21:50:35 10° WSW 22:00:30 62° SSE 22:18:45 10° E visible
24 May 12.3 00:10:29 10° W 00:24:05 62° S 00:46:02 10° ESE visible
24 May 12.8 02:32:28 10° W 02:48:47 42° SSW 03:09:31 10° SSE visible
24 May 11.8 22:10:30 10° WSW 22:20:44 64° S 22:39:29 10° E visible
25 May 12.3 00:30:40 10° W 00:44:29 58° SSW 01:06:15 10° SE visible
25 May 13.0 02:53:15 10° W 03:08:57 35° SW 03:28:24 10° SSE visible
25 May 11.9 22:30:29 10° WSW 22:41:01 64° S 23:00:10 10° ESE visible
26 May 12.4 00:50:54 10° W 01:04:52 52° SSW 01:26:14 10° SE visible
26 May 13.1 03:14:23 10° W 03:29:05 28° SW 03:46:44 10° S visible
26 May 11.5 20:31:28 10° SW 20:39:12 53° SSE 20:53:25 10° E visible
26 May 11.9 22:50:31 10° W 23:01:19 63° S 23:20:44 10° ESE visible
27 May 12.5 01:11:14 10° W 01:25:12 46° SSW 01:45:54 10° SE visible
27 May 13.3 03:36:08 10° W 03:49:09 22° SW 04:04:16 10° S visible
27 May 11.4 20:51:16 10° WSW 20:59:14 57° SSE 21:14:07 10° E visible
27 May 12.0 23:10:34 10° W 23:21:38 59° S 23:41:10 10° ESE visible
28 May 12.7 01:31:43 10° W 01:45:30 39° SSW 02:05:13 10° SSE visible
28 May 13.4 03:59:08 10° WSW 04:09:11 16° SW 04:20:23 10° SSW visible
28 May 11.5 21:11:09 10° WSW 21:19:21 60° S 21:34:47 10° E visible
28 May 12.1 23:30:41 10° W 23:41:57 54° SSW 23:58:07 16° SE visible
29 May 12.8 01:52:25 10° W 02:05:44 33° SSW 02:24:03 10° SSE visible
29 May 11.5 21:31:04 10° WSW 21:39:32 60° S 21:55:23 10° ESE visible
